owner,sensor,date,latitude,longitude,vertical_datum,direction_of_sea_water_velocity,sea_water_speed,upward_sea_water_velocity,qcFlag 
ADCP,ioos:station:wmo:42890:1,2012-01-22T22:59:00Z,27.6250,-90.4410,15.2,78.0,16.2,-9999.0,'11111222,11111222,99999999' 
ADCP,ioos:station:wmo:42890:1,2012-01-22T23:56:00Z,27.6250,-90.4410,15.2,77.0,13.2,-9999.0,'11111222,11111222,99999999' 
ADCP,ioos:station:wmo:42890:1,2012-01-23T00:02:00Z,27.6250,-90.4410,15.2,81.0,15.2,-9999.0,'11111222,11111222,99999999' 
ADCP,ioos:station:wmo:42890:1,2012-01-23T00:08:00Z,27.6250,-90.4410,15.2,83.0,15.1,-9999.0,'11111222,11111222,99999999' 
ADCP,ioos:station:wmo:42890:1,2012-01-23T00:14:00Z,27.6250,-90.4410,15.2,81.0,14.9,-9999.0,'11111222,11111222,99999999' 
ADCP,ioos:station:wmo:42890:1,2012-01-23T00:20:00Z,27.6250,-90.4410,15.2,86.0,13.6,-9999.0,'11111222,11111222,99999999' 
ADCP,ioos:station:wmo:42890:1,2012-01-23T00:26:00Z,27.6250,-90.4410,15.2,90.0,15.0,-9999.0,'11111222,11111222,99999999' 
ADCP,ioos:station:wmo:42890:1,2012-01-23T00:32:00Z,27.6250,-90.4410,15.2,89.0,15.0,-9999.0,'11111222,11111222,99999999' 
ADCP,ioos:station:wmo:42890:1,2012-01-23T00:38:00Z,27.6250,-90.4410,15.2,89.0,16.7,-9999.0,'11111222,11111222,99999999' 
ADCP,ioos:station:wmo:42890:1,2012-01-23T00:56:00Z,27.6250,-90.4410,15.2,96.0,13.1,-9999.0,'11111222,11111222,99999999' 
ADCP,ioos:station:wmo:42890:1,2012-01-23T01:02:00Z,27.6250,-90.4410,15.2,99.0,13.6,-9999.0,'11111222,11111222,99999999' 
ADCP,ioos:station:wmo:42890:1,2012-01-23T01:08:00Z,27.6250,-90.4410,15.2,99.0,15.3,-9999.0,'11111222,11111222,99999999' 
ADCP,ioos:station:wmo:42890:1,2012-01-23T01:14:00Z,27.6250,-90.4410,15.2,97.0,14.6,-9999.0,'11111222,11111222,99999999' 
ADCP,ioos:station:wmo:42890:1,2012-01-23T01:20:00Z,27.6250,-90.4410,15.2,96.0,15.4,-9999.0,'11111222,11111222,99999999' 
ADCP,ioos:station:wmo:42890:1,2012-01-23T01:26:00Z,27.6250,-90.4410,15.2,99.0,15.8,-9999.0,'11111222,11111222,99999999' 
ADCP,ioos:station:wmo:42890:1,2012-01-23T01:32:00Z,27.6250,-90.4410,15.2,97.0,13.3,-9999.0,'11111222,11111222,99999999' 
ADCP,ioos:station:wmo:42890:1,2012-01-23T01:38:00Z,27.6250,-90.4410,15.2,97.0,14.4,-9999.0,'11111222,11111222,99999999' 
ADCP,ioos:station:wmo:42890:1,2012-01-23T01:44:00Z,27.6250,-90.4410,15.2,94.0,14.5,-9999.0,'11111222,11111222,99999999' 
ADCP,ioos:station:wmo:42890:1,2012-01-23T01:50:00Z,27.6250,-90.4410,15.2,96.0,13.8,-9999.0,'11111222,11111222,99999999' 
ADCP,ioos:station:wmo:42890:1,2012-01-23T01:56:00Z,27.6250,-90.4410,15.2,101.0,14.3,-9999.0,'11111222,11111222,99999999' 
ADCP,ioos:station:wmo:42890:1,2012-01-23T02:02:00Z,27.6250,-90.4410,15.2,105.0,14.8,-9999.0,'11111222,11111222,99999999' 
ADCP,ioos:station:wmo:42890:1,2012-01-23T02:08:00Z,27.6250,-90.4410,15.2,101.0,11.4,-9999.0,'11111222,11111222,99999999' 
ADCP,ioos:station:wmo:42890:1,2012-01-23T02:14:00Z,27.6250,-90.4410,15.2,101.0,13.0,-9999.0,'11111222,11111222,99999999' 
ADCP,ioos:station:wmo:42890:1,2012-01-23T02:20:00Z,27.6250,-90.4410,15.2,107.0,12.1,-9999.0,'11111222,11111222,99999999' 
ADCP,ioos:station:wmo:42890:1,2012-01-23T02:26:00Z,27.6250,-90.4410,15.2,113.0,10.1,-9999.0,'11111222,11111222,99999999' 
ADCP,ioos:station:wmo:42890:1,2012-01-23T02:32:00Z,27.6250,-90.4410,15.2,104.0,12.0,-9999.0,'11111222,11111222,99999999' 
ADCP,ioos:station:wmo:42890:1,2012-01-23T02:38:00Z,27.6250,-90.4410,15.2,105.0,11.7,-9999.0,'11111222,11111222,99999999' 
ADCP,ioos:station:wmo:42890:1,2012-01-23T02:44:00Z,27.6250,-90.4410,15.2,105.0,11.7,-9999.0,'11111222,11111222,99999999' 
ADCP,ioos:station:wmo:42890:1,2012-01-23T02:50:00Z,27.6250,-90.4410,15.2,110.0,12.3,-9999.0,'11111222,11111222,99999999' 
ADCP,ioos:station:wmo:42890:1,2012-01-23T02:56:00Z,27.6250,-90.4410,15.2,107.0,13.9,-9999.0,'11111222,11111222,99999999' 
ADCP,ioos:station:wmo:42890:1,2012-01-23T03:02:00Z,27.6250,-90.4410,15.2,107.0,14.3,-9999.0,'11111222,11111222,99999999' 
ADCP,ioos:station:wmo:42890:1,2012-01-23T03:08:00Z,27.6250,-90.4410,15.2,108.0,14.3,-9999.0,'11111222,11111222,99999999' 
ADCP,ioos:station:wmo:42890:1,2012-01-23T03:14:00Z,27.6250,-90.4410,15.2,112.0,13.3,-9999.0,'11111222,11111222,99999999' 
ADCP,ioos:station:wmo:42890:1,2012-01-23T03:20:00Z,27.6250,-90.4410,15.2,105.0,14.8,-9999.0,'11111222,11111222,99999999' 
ADCP,ioos:station:wmo:42890:1,2012-01-23T03:26:00Z,27.6250,-90.4410,15.2,109.0,14.1,-9999.0,'11111222,11111222,99999999' 
ADCP,ioos:station:wmo:42890:1,2012-01-23T03:32:00Z,27.6250,-90.4410,15.2,107.0,13.6,-9999.0,'11111222,11111222,99999999' 
ADCP,ioos:station:wmo:42890:1,2012-01-23T03:38:00Z,27.6250,-90.4410,15.2,111.0,12.4,-9999.0,'11111222,11111222,99999999' 
ADCP,ioos:station:wmo:42890:1,2012-01-23T03:44:00Z,27.6250,-90.4410,15.2,112.0,12.7,-9999.0,'11111222,11111222,99999999' 
ADCP,ioos:station:wmo:42890:1,2012-01-23T03:50:00Z,27.6250,-90.4410,15.2,109.0,14.1,-9999.0,'11111222,11111222,99999999' 
ADCP,ioos:station:wmo:42890:1,2012-01-23T03:56:00Z,27.6250,-90.4410,15.2,106.0,15.7,-9999.0,'11111222,11111222,99999999' 
ADCP,ioos:station:wmo:42890:1,2012-01-23T04:02:00Z,27.6250,-90.4410,15.2,108.0,13.0,-9999.0,'11111222,11111222,99999999' 
ADCP,ioos:station:wmo:42890:1,2012-01-23T04:08:00Z,27.6250,-90.4410,15.2,107.0,12.5,-9999.0,'11111222,11111222,99999999' 
ADCP,ioos:station:wmo:42890:1,2012-01-23T04:14:00Z,27.6250,-90.4410,15.2,112.0,11.7,-9999.0,'11111222,11111222,99999999' 
ADCP,ioos:station:wmo:42890:1,2012-01-23T04:20:00Z,27.6250,-90.4410,15.2,112.0,11.1,-9999.0,'11111222,11111222,99999999' 
ADCP,ioos:station:wmo:42890:1,2012-01-23T04:26:00Z,27.6250,-90.4410,15.2,100.0,16.9,-9999.0,'11111222,11111222,99999999' 
ADCP,ioos:station:wmo:42890:1,2012-01-23T04:32:00Z,27.6250,-90.4410,15.2,92.0,18.0,-9999.0,'11111222,11111222,99999999' 
ADCP,ioos:station:wmo:42890:1,2012-01-23T04:38:00Z,27.6250,-90.4410,15.2,92.0,17.4,-9999.0,'11111222,11111222,99999999' 
ADCP,ioos:station:wmo:42890:1,2012-01-23T04:44:00Z,27.6250,-90.4410,15.2,92.0,19.0,-9999.0,'11111222,11111222,99999999' 
ADCP,ioos:station:wmo:42890:1,2012-01-23T04:51:00Z,27.6250,-90.4410,15.2,88.0,18.0,-9999.0,'11111222,11111222,99999999' 
ADCP,ioos:station:wmo:42890:1,2012-01-23T04:57:00Z,27.6250,-90.4410,15.2,87.0,16.9,-9999.0,'11111222,11111222,99999999' 
ADCP,ioos:station:wmo:42890:1,2012-01-23T05:03:00Z,27.6250,-90.4410,15.2,87.0,15.7,-9999.0,'11111222,11111222,99999999' 
ADCP,ioos:station:wmo:42890:1,2012-01-23T05:09:00Z,27.6250,-90.4410,15.2,85.0,16.1,-9999.0,'11111222,11111222,99999999' 
ADCP,ioos:station:wmo:42890:1,2012-01-23T05:15:00Z,27.6250,-90.4410,15.2,84.0,15.7,-9999.0,'11111222,11111222,99999999' 
ADCP,ioos:station:wmo:42890:1,2012-01-23T05:21:00Z,27.6250,-90.4410,15.2,85.0,17.4,-9999.0,'11111222,11111222,99999999' 
ADCP,ioos:station:wmo:42890:1,2012-01-23T05:27:00Z,27.6250,-90.4410,15.2,85.0,17.8,-9999.0,'11111222,11111222,99999999' 
ADCP,ioos:station:wmo:42890:1,2012-01-23T05:33:00Z,27.6250,-90.4410,15.2,85.0,18.6,-9999.0,'11111222,11111222,99999999' 
ADCP,ioos:station:wmo:42890:1,2012-01-23T05:39:00Z,27.6250,-90.4410,15.2,86.0,15.4,-9999.0,'11111222,11111222,99999999' 
ADCP,ioos:station:wmo:42890:1,2012-01-23T05:45:00Z,27.6250,-90.4410,15.2,85.0,17.3,-9999.0,'11111222,11111222,99999999' 
ADCP,ioos:station:wmo:42890:1,2012-01-23T05:51:00Z,27.6250,-90.4410,15.2,85.0,17.4,-9999.0,'11111222,11111222,99999999' 
ADCP,ioos:station:wmo:42890:1,2012-01-23T05:57:00Z,27.6250,-90.4410,15.2,84.0,17.6,-9999.0,'11111222,11111222,99999999' 
ADCP,ioos:station:wmo:42890:1,2012-01-23T06:03:00Z,27.6250,-90.4410,15.2,84.0,15.7,-9999.0,'11111222,11111222,99999999' 
ADCP,ioos:station:wmo:42890:1,2012-01-23T06:09:00Z,27.6250,-90.4410,15.2,85.0,15.0,-9999.0,'11111222,11111222,99999999' 
ADCP,ioos:station:wmo:42890:1,2012-01-23T06:15:00Z,27.6250,-90.4410,15.2,81.0,16.2,-9999.0,'11111222,11111222,99999999' 
ADCP,ioos:station:wmo:42890:1,2012-01-23T06:21:00Z,27.6250,-90.4410,15.2,80.0,14.6,-9999.0,'11111222,11111222,99999999' 
ADCP,ioos:station:wmo:42890:1,2012-01-23T06:27:00Z,27.6250,-90.4410,15.2,79.0,15.4,-9999.0,'11111222,11111222,99999999' 
ADCP,ioos:station:wmo:42890:1,2012-01-23T06:33:00Z,27.6250,-90.4410,15.2,78.0,16.5,-9999.0,'11111222,11111222,99999999' 
ADCP,ioos:station:wmo:42890:1,2012-01-23T06:39:00Z,27.6250,-90.4410,15.2,77.0,15.8,-9999.0,'11111222,11111222,99999999' 
ADCP,ioos:station:wmo:42890:1,2012-01-23T06:45:00Z,27.6250,-90.4410,15.2,77.0,16.1,-9999.0,'11111222,11111222,99999999' 
ADCP,ioos:station:wmo:42890:1,2012-01-23T06:51:00Z,27.6250,-90.4410,15.2,76.0,16.3,-9999.0,'11111222,11111222,99999999' 
ADCP,ioos:station:wmo:42890:1,2012-01-23T06:57:00Z,27.6250,-90.4410,15.2,77.0,15.5,-9999.0,'11111222,11111222,99999999' 
ADCP,ioos:station:wmo:42890:1,2012-01-23T07:03:00Z,27.6250,-90.4410,15.2,76.0,16.3,-9999.0,'11111222,11111222,99999999' 
ADCP,ioos:station:wmo:42890:1,2012-01-23T07:09:00Z,27.6250,-90.4410,15.2,75.0,16.2,-9999.0,'11111222,11111222,99999999' 
ADCP,ioos:station:wmo:42890:1,2012-01-23T07:15:00Z,27.6250,-90.4410,15.2,74.0,14.9,-9999.0,'11111222,11111222,99999999' 
ADCP,ioos:station:wmo:42890:1,2012-01-23T07:21:00Z,27.6250,-90.4410,15.2,76.0,16.1,-9999.0,'11111222,11111222,99999999' 
ADCP,ioos:station:wmo:42890:1,2012-01-23T07:27:00Z,27.6250,-90.4410,15.2,78.0,16.3,-9999.0,'11111222,11111222,99999999' 
ADCP,ioos:station:wmo:42890:1,2012-01-23T07:33:00Z,27.6250,-90.4410,15.2,75.0,17.5,-9999.0,'11111222,11111222,99999999' 
ADCP,ioos:station:wmo:42890:1,2012-01-23T07:39:00Z,27.6250,-90.4410,15.2,77.0,18.1,-9999.0,'11111222,11111222,99999999' 
ADCP,ioos:station:wmo:42890:1,2012-01-23T07:45:00Z,27.6250,-90.4410,15.2,75.0,17.8,-9999.0,'11111222,11111222,99999999' 
ADCP,ioos:station:wmo:42890:1,2012-01-23T07:51:00Z,27.6250,-90.4410,15.2,76.0,15.9,-9999.0,'11111222,11111222,99999999' 
ADCP,ioos:station:wmo:42890:1,2012-01-23T07:57:00Z,27.6250,-90.4410,15.2,80.0,16.2,-9999.0,'11111222,11111222,99999999' 
ADCP,ioos:station:wmo:42890:1,2012-01-23T08:03:00Z,27.6250,-90.4410,15.2,74.0,14.5,-9999.0,'11111222,11111222,99999999' 
ADCP,ioos:station:wmo:42890:1,2012-01-23T08:09:00Z,27.6250,-90.4410,15.2,93.0,8.1,-9999.0,'11133222,11111222,99999999' 
ADCP,ioos:station:wmo:42890:1,2012-01-23T08:15:00Z,27.6250,-90.4410,15.2,85.0,7.6,-9999.0,'11133222,11111222,99999999' 
ADCP,ioos:station:wmo:42890:1,2012-01-23T08:22:00Z,27.6250,-90.4410,15.2,81.0,7.9,-9999.0,'11133222,11111222,99999999' 
ADCP,ioos:station:wmo:42890:1,2012-01-23T08:28:00Z,27.6250,-90.4410,15.2,82.0,8.2,-9999.0,'11133222,11111222,99999999' 
ADCP,ioos:station:wmo:42890:1,2012-01-23T08:34:00Z,27.6250,-90.4410,15.2,77.0,8.2,-9999.0,'11133222,11111222,99999999' 
ADCP,ioos:station:wmo:42890:1,2012-01-23T08:40:00Z,27.6250,-90.4410,15.2,73.0,8.5,-9999.0,'11133222,11111222,99999999' 
ADCP,ioos:station:wmo:42890:1,2012-01-23T08:46:00Z,27.6250,-90.4410,15.2,67.0,7.2,-9999.0,'11133222,11111222,99999999' 
ADCP,ioos:station:wmo:42890:1,2012-01-23T08:52:00Z,27.6250,-90.4410,15.2,69.0,9.1,-9999.0,'11133222,11111222,99999999' 
ADCP,ioos:station:wmo:42890:1,2012-01-23T08:58:00Z,27.6250,-90.4410,15.2,71.0,8.3,-9999.0,'11133222,11111222,99999999' 
ADCP,ioos:station:wmo:42890:1,2012-01-23T09:04:00Z,27.6250,-90.4410,15.2,75.0,9.5,-9999.0,'11133222,11111222,99999999' 
ADCP,ioos:station:wmo:42890:1,2012-01-23T09:10:00Z,27.6250,-90.4410,15.2,67.0,8.0,-9999.0,'11133222,11111222,99999999' 
ADCP,ioos:station:wmo:42890:1,2012-01-23T09:16:00Z,27.6250,-90.4410,15.2,77.0,9.2,-9999.0,'11133222,11111222,99999999' 
ADCP,ioos:station:wmo:42890:1,2012-01-23T09:22:00Z,27.6250,-90.4410,15.2,71.0,9.1,-9999.0,'11133222,11111222,99999999' 
ADCP,ioos:station:wmo:42890:1,2012-01-23T09:28:00Z,27.6250,-90.4410,15.2,73.0,8.4,-9999.0,'11133222,11111222,99999999' 
ADCP,ioos:station:wmo:42890:1,2012-01-23T09:34:00Z,27.6250,-90.4410,15.2,79.0,9.3,-9999.0,'11133222,11111222,99999999' 
ADCP,ioos:station:wmo:42890:1,2012-01-23T09:40:00Z,27.6250,-90.4410,15.2,73.0,9.6,-9999.0,'11133222,11111222,99999999' 
ADCP,ioos:station:wmo:42890:1,2012-01-23T09:46:00Z,27.6250,-90.4410,15.2,79.0,8.9,-9999.0,'11133222,11111222,99999999' 
ADCP,ioos:station:wmo:42890:1,2012-01-23T09:52:00Z,27.6250,-90.4410,15.2,75.0,8.0,-9999.0,'11133222,11111222,99999999' 
ADCP,ioos:station:wmo:42890:1,2012-01-23T09:58:00Z,27.6250,-90.4410,15.2,80.0,8.3,-9999.0,'11133222,11111222,99999999' 
ADCP,ioos:station:wmo:42890:1,2012-01-23T10:04:00Z,27.6250,-90.4410,15.2,70.0,8.6,-9999.0,'11133222,11111222,99999999' 
ADCP,ioos:station:wmo:42890:1,2012-01-23T10:10:00Z,27.6250,-90.4410,15.2,71.0,8.1,-9999.0,'11133222,11111222,99999999' 
ADCP,ioos:station:wmo:42890:1,2012-01-23T10:16:00Z,27.6250,-90.4410,15.2,67.0,8.5,-9999.0,'11133222,11111222,99999999' 
ADCP,ioos:station:wmo:42890:1,2012-01-23T10:22:00Z,27.6250,-90.4410,15.2,69.0,8.8,-9999.0,'11133222,11111222,99999999' 
ADCP,ioos:station:wmo:42890:1,2012-01-23T10:28:00Z,27.6250,-90.4410,15.2,70.0,9.2,-9999.0,'11133222,11111222,99999999' 
ADCP,ioos:station:wmo:42890:1,2012-01-23T10:34:00Z,27.6250,-90.4410,15.2,69.0,9.7,-9999.0,'11133222,11111222,99999999' 
ADCP,ioos:station:wmo:42890:1,2012-01-23T10:40:00Z,27.6250,-90.4410,15.2,72.0,8.9,-9999.0,'11133222,11111222,99999999' 
ADCP,ioos:station:wmo:42890:1,2012-01-23T10:46:00Z,27.6250,-90.4410,15.2,70.0,9.4,-9999.0,'11133222,11111222,99999999' 
ADCP,ioos:station:wmo:42890:1,2012-01-23T10:52:00Z,27.6250,-90.4410,15.2,71.0,11.0,-9999.0,'11111222,11111222,99999999' 
ADCP,ioos:station:wmo:42890:1,2012-01-23T10:58:00Z,27.6250,-90.4410,15.2,71.0,10.0,-9999.0,'11111222,11111222,99999999' 
ADCP,ioos:station:wmo:42890:1,2012-01-23T11:04:00Z,27.6250,-90.4410,15.2,75.0,9.8,-9999.0,'11133222,11111222,99999999' 
ADCP,ioos:station:wmo:42890:1,2012-01-23T11:10:00Z,27.6250,-90.4410,15.2,74.0,8.9,-9999.0,'11133222,11111222,99999999' 
ADCP,ioos:station:wmo:42890:1,2012-01-23T11:16:00Z,27.6250,-90.4410,15.2,72.0,10.5,-9999.0,'11111222,11111222,99999999' 
ADCP,ioos:station:wmo:42890:1,2012-01-23T11:22:00Z,27.6250,-90.4410,15.2,82.0,7.0,-9999.0,'11133222,11111222,99999999' 
ADCP,ioos:station:wmo:42890:1,2012-01-23T11:28:00Z,27.6250,-90.4410,15.2,70.0,9.5,-9999.0,'11133222,11111222,99999999' 
ADCP,ioos:station:wmo:42890:1,2012-01-23T11:34:00Z,27.6250,-90.4410,15.2,74.0,12.2,-9999.0,'11111222,11111222,99999999' 
ADCP,ioos:station:wmo:42890:1,2012-01-23T11:40:00Z,27.6250,-90.4410,15.2,72.0,15.2,-9999.0,'11111222,11111222,99999999' 
ADCP,ioos:station:wmo:42890:1,2012-01-23T11:46:00Z,27.6250,-90.4410,15.2,73.0,13.8,-9999.0,'11111222,11111222,99999999' 
ADCP,ioos:station:wmo:42890:1,2012-01-23T11:52:00Z,27.6250,-90.4410,15.2,76.0,10.1,-9999.0,'11111222,11111222,99999999' 
ADCP,ioos:station:wmo:42890:1,2012-01-23T11:58:00Z,27.6250,-90.4410,15.2,68.0,6.9,-9999.0,'11133222,11111222,99999999' 
ADCP,ioos:station:wmo:42890:1,2012-01-23T12:04:00Z,27.6250,-90.4410,15.2,72.0,10.3,-9999.0,'11111222,11111222,99999999' 
ADCP,ioos:station:wmo:42890:1,2012-01-23T12:10:00Z,27.6250,-90.4410,15.2,71.0,11.6,-9999.0,'11111222,11111222,99999999' 
ADCP,ioos:station:wmo:42890:1,2012-01-23T12:16:00Z,27.6250,-90.4410,15.2,74.0,11.3,-9999.0,'11111222,11111222,99999999' 
ADCP,ioos:station:wmo:42890:1,2012-01-23T12:22:00Z,27.6250,-90.4410,15.2,78.0,9.3,-9999.0,'11133222,11111222,99999999' 
ADCP,ioos:station:wmo:42890:1,2012-01-23T12:28:00Z,27.6250,-90.4410,15.2,82.0,7.6,-9999.0,'11133222,11111222,99999999' 
ADCP,ioos:station:wmo:42890:1,2012-01-23T12:34:00Z,27.6250,-90.4410,15.2,80.0,7.2,-9999.0,'11133222,11111222,99999999' 
ADCP,ioos:station:wmo:42890:1,2012-01-23T12:40:00Z,27.6250,-90.4410,15.2,83.0,7.2,-9999.0,'11133222,11111222,99999999' 
ADCP,ioos:station:wmo:42890:1,2012-01-23T12:46:00Z,27.6250,-90.4410,15.2,76.0,7.6,-9999.0,'11133222,11111222,99999999' 
ADCP,ioos:station:wmo:42890:1,2012-01-23T12:52:00Z,27.6250,-90.4410,15.2,70.0,6.6,-9999.0,'11133222,11111222,99999999' 
ADCP,ioos:station:wmo:42890:1,2012-01-23T12:58:00Z,27.6250,-90.4410,15.2,73.0,6.7,-9999.0,'11133222,11111222,99999999' 
ADCP,ioos:station:wmo:42890:1,2012-01-23T13:04:00Z,27.6250,-90.4410,15.2,82.0,8.2,-9999.0,'11133222,11111222,99999999' 
ADCP,ioos:station:wmo:42890:1,2012-01-23T13:16:00Z,27.6250,-90.4410,15.2,83.0,5.9,-9999.0,'11133222,11111222,99999999' 
ADCP,ioos:station:wmo:42890:1,2012-01-23T13:22:00Z,27.6250,-90.4410,15.2,86.0,5.4,-9999.0,'11133222,11111222,99999999' 
ADCP,ioos:station:wmo:42890:1,2012-01-23T13:28:00Z,27.6250,-90.4410,15.2,84.0,5.9,-9999.0,'11133222,11111222,99999999' 
ADCP,ioos:station:wmo:42890:1,2012-01-23T13:34:00Z,27.6250,-90.4410,15.2,81.0,4.9,-9999.0,'11133222,11111222,99999999' 
ADCP,ioos:station:wmo:42890:1,2012-01-23T13:40:00Z,27.6250,-90.4410,15.2,85.0,6.6,-9999.0,'11133222,11111222,99999999' 
ADCP,ioos:station:wmo:42890:1,2012-01-23T13:46:00Z,27.6250,-90.4410,15.2,87.0,6.4,-9999.0,'11133222,11111222,99999999' 
ADCP,ioos:station:wmo:42890:1,2012-01-23T13:52:00Z,27.6250,-90.4410,15.2,78.0,5.1,-9999.0,'11133222,11111222,99999999' 
ADCP,ioos:station:wmo:42890:1,2012-01-23T13:58:00Z,27.6250,-90.4410,15.2,76.0,6.6,-9999.0,'11133222,11111222,99999999' 
ADCP,ioos:station:wmo:42890:1,2012-01-23T14:04:00Z,27.6250,-90.4410,15.2,81.0,5.5,-9999.0,'11133222,11111222,99999999' 
ADCP,ioos:station:wmo:42890:1,2012-01-23T14:10:00Z,27.6250,-90.4410,15.2,86.0,4.8,-9999.0,'11133222,11111222,99999999' 
ADCP,ioos:station:wmo:42890:1,2012-01-23T14:16:00Z,27.6250,-90.4410,15.2,80.0,5.8,-9999.0,'11133222,11111222,99999999' 
ADCP,ioos:station:wmo:42890:1,2012-01-23T14:22:00Z,27.6250,-90.4410,15.2,85.0,5.5,-9999.0,'11133222,11111222,99999999' 
ADCP,ioos:station:wmo:42890:1,2012-01-23T14:28:00Z,27.6250,-90.4410,15.2,84.0,5.4,-9999.0,'11133222,11111222,99999999' 
ADCP,ioos:station:wmo:42890:1,2012-01-23T14:35:00Z,27.6250,-90.4410,15.2,77.0,5.2,-9999.0,'11133222,11111222,99999999' 
ADCP,ioos:station:wmo:42890:1,2012-01-23T14:41:00Z,27.6250,-90.4410,15.2,85.0,4.5,-9999.0,'11133222,11111222,99999999' 
ADCP,ioos:station:wmo:42890:1,2012-01-23T14:47:00Z,27.6250,-90.4410,15.2,84.0,5.1,-9999.0,'11133222,11111222,99999999' 
ADCP,ioos:station:wmo:42890:1,2012-01-23T14:53:00Z,27.6250,-90.4410,15.2,90.0,3.3,-9999.0,'11133222,11111222,99999999' 
ADCP,ioos:station:wmo:42890:1,2012-01-23T14:59:00Z,27.6250,-90.4410,15.2,90.0,4.6,-9999.0,'11133222,11111222,99999999' 
ADCP,ioos:station:wmo:42890:1,2012-01-23T15:05:00Z,27.6250,-90.4410,15.2,93.0,4.4,-9999.0,'11133222,11111222,99999999' 
ADCP,ioos:station:wmo:42890:1,2012-01-23T15:11:00Z,27.6250,-90.4410,15.2,102.0,3.5,-9999.0,'11133222,11111222,99999999' 
ADCP,ioos:station:wmo:42890:1,2012-01-23T15:17:00Z,27.6250,-90.4410,15.2,104.0,4.0,-9999.0,'11133222,11111222,99999999' 
ADCP,ioos:station:wmo:42890:1,2012-01-23T15:23:00Z,27.6250,-90.4410,15.2,88.0,3.7,-9999.0,'11133222,11111222,99999999' 
ADCP,ioos:station:wmo:42890:1,2012-01-23T15:29:00Z,27.6250,-90.4410,15.2,229.0,2.8,-9999.0,'11133222,11111222,99999999' 
ADCP,ioos:station:wmo:42890:1,2012-01-23T15:35:00Z,27.6250,-90.4410,15.2,97.0,2.4,-9999.0,'11133222,11111222,99999999' 
ADCP,ioos:station:wmo:42890:1,2012-01-23T15:41:00Z,27.6250,-90.4410,15.2,95.0,3.6,-9999.0,'11133222,11111222,99999999' 
ADCP,ioos:station:wmo:42890:1,2012-01-23T15:47:00Z,27.6250,-90.4410,15.2,90.0,4.7,-9999.0,'11133222,11111222,99999999' 
ADCP,ioos:station:wmo:42890:1,2012-01-23T15:53:00Z,27.6250,-90.4410,15.2,35.0,4.4,-9999.0,'11133222,11111222,99999999' 
ADCP,ioos:station:wmo:42890:1,2012-01-23T15:59:00Z,27.6250,-90.4410,15.2,96.0,4.1,-9999.0,'11133222,11111222,99999999' 
ADCP,ioos:station:wmo:42890:1,2012-01-23T16:05:00Z,27.6250,-90.4410,15.2,69.0,6.0,-9999.0,'11133222,11111222,99999999' 
ADCP,ioos:station:wmo:42890:1,2012-01-23T16:11:00Z,27.6250,-90.4410,15.2,83.0,7.4,-9999.0,'11133222,11111222,99999999' 
ADCP,ioos:station:wmo:42890:1,2012-01-23T16:17:00Z,27.6250,-90.4410,15.2,96.0,5.7,-9999.0,'11133222,11111222,99999999' 
ADCP,ioos:station:wmo:42890:1,2012-01-23T16:23:00Z,27.6250,-90.4410,15.2,88.0,3.7,-9999.0,'11133222,11111222,99999999' 
ADCP,ioos:station:wmo:42890:1,2012-01-23T16:29:00Z,27.6250,-90.4410,15.2,75.0,5.5,-9999.0,'11133222,11111222,99999999' 
ADCP,ioos:station:wmo:42890:1,2012-01-23T16:35:00Z,27.6250,-90.4410,15.2,58.0,5.8,-9999.0,'11133222,11111222,99999999' 
ADCP,ioos:station:wmo:42890:1,2012-01-23T16:41:00Z,27.6250,-90.4410,15.2,71.0,7.2,-9999.0,'11133222,11111222,99999999' 
ADCP,ioos:station:wmo:42890:1,2012-01-23T16:47:00Z,27.6250,-90.4410,15.2,63.0,6.5,-9999.0,'11133222,11111222,99999999' 
ADCP,ioos:station:wmo:42890:1,2012-01-23T16:53:00Z,27.6250,-90.4410,15.2,80.0,6.2,-9999.0,'11133222,11111222,99999999' 
ADCP,ioos:station:wmo:42890:1,2012-01-23T16:59:00Z,27.6250,-90.4410,15.2,60.0,8.4,-9999.0,'11133222,11111222,99999999' 
ADCP,ioos:station:wmo:42890:1,2012-01-23T17:05:00Z,27.6250,-90.4410,15.2,57.0,8.2,-9999.0,'11133222,11111222,99999999' 
ADCP,ioos:station:wmo:42890:1,2012-01-23T17:11:00Z,27.6250,-90.4410,15.2,46.0,6.2,-9999.0,'11133222,11111222,99999999' 
ADCP,ioos:station:wmo:42890:1,2012-01-23T17:17:00Z,27.6250,-90.4410,15.2,46.0,6.2,-9999.0,'11133222,11111222,99999999' 
ADCP,ioos:station:wmo:42890:1,2012-01-23T17:23:00Z,27.6250,-90.4410,15.2,43.0,7.7,-9999.0,'11133222,11111222,99999999' 
ADCP,ioos:station:wmo:42890:1,2012-01-23T17:29:00Z,27.6250,-90.4410,15.2,27.0,5.1,-9999.0,'11133222,11111222,99999999' 
ADCP,ioos:station:wmo:42890:1,2012-01-23T17:35:00Z,27.6250,-90.4410,15.2,22.0,5.0,-9999.0,'11133222,11111222,99999999' 
ADCP,ioos:station:wmo:42890:1,2012-01-23T17:41:00Z,27.6250,-90.4410,15.2,44.0,8.0,-9999.0,'11133222,11111222,99999999' 
ADCP,ioos:station:wmo:42890:1,2012-01-23T17:47:00Z,27.6250,-90.4410,15.2,43.0,7.4,-9999.0,'11133222,11111222,99999999' 
ADCP,ioos:station:wmo:42890:1,2012-01-23T17:53:00Z,27.6250,-90.4410,15.2,32.0,7.1,-9999.0,'11133222,11111222,99999999' 
ADCP,ioos:station:wmo:42890:1,2012-01-23T17:59:00Z,27.6250,-90.4410,15.2,27.0,5.5,-9999.0,'11133222,11111222,99999999' 
ADCP,ioos:station:wmo:42890:1,2012-01-23T18:05:00Z,27.6250,-90.4410,15.2,5.0,5.8,-9999.0,'11133222,11111222,99999999' 
ADCP,ioos:station:wmo:42890:1,2012-01-23T18:11:00Z,27.6250,-90.4410,15.2,24.0,4.3,-9999.0,'11133222,11111222,99999999' 
ADCP,ioos:station:wmo:42890:1,2012-01-23T18:17:00Z,27.6250,-90.4410,15.2,31.0,6.4,-9999.0,'11133222,11111222,99999999' 
ADCP,ioos:station:wmo:42890:1,2012-01-23T18:23:00Z,27.6250,-90.4410,15.2,33.0,4.3,-9999.0,'11133222,11111222,99999999' 
ADCP,ioos:station:wmo:42890:1,2012-01-23T18:29:00Z,27.6250,-90.4410,15.2,19.0,5.9,-9999.0,'11133222,11111222,99999999' 
ADCP,ioos:station:wmo:42890:1,2012-01-23T18:35:00Z,27.6250,-90.4410,15.2,11.0,5.4,-9999.0,'11133222,11111222,99999999' 
ADCP,ioos:station:wmo:42890:1,2012-01-23T18:41:00Z,27.6250,-90.4410,15.2,40.0,4.5,-9999.0,'11133222,11111222,99999999' 
ADCP,ioos:station:wmo:42890:1,2012-01-23T18:47:00Z,27.6250,-90.4410,15.2,55.0,7.2,-9999.0,'11133222,11111222,99999999' 
ADCP,ioos:station:wmo:42890:1,2012-01-23T18:53:00Z,27.6250,-90.4410,15.2,29.0,3.7,-9999.0,'11133222,11111222,99999999' 
ADCP,ioos:station:wmo:42890:1,2012-01-23T18:59:00Z,27.6250,-90.4410,15.2,66.0,8.2,-9999.0,'11133222,11111222,99999999' 
ADCP,ioos:station:wmo:42890:1,2012-01-23T19:05:00Z,27.6250,-90.4410,15.2,331.0,3.3,-9999.0,'11133222,11111222,99999999' 
ADCP,ioos:station:wmo:42890:1,2012-01-23T19:11:00Z,27.6250,-90.4410,15.2,91.0,3.9,-9999.0,'11133222,11111222,99999999' 
ADCP,ioos:station:wmo:42890:1,2012-01-23T19:17:00Z,27.6250,-90.4410,15.2,68.0,4.6,-9999.0,'11133222,11111222,99999999' 
ADCP,ioos:station:wmo:42890:1,2012-01-23T19:23:00Z,27.6250,-90.4410,15.2,301.0,3.9,-9999.0,'11133222,11111222,99999999' 
ADCP,ioos:station:wmo:42890:1,2012-01-23T19:29:00Z,27.6250,-90.4410,15.2,2.0,4.8,-9999.0,'11133222,11111222,99999999' 
ADCP,ioos:station:wmo:42890:1,2012-01-23T19:35:00Z,27.6250,-90.4410,15.2,26.0,2.5,-9999.0,'11133222,11111222,99999999' 
ADCP,ioos:station:wmo:42890:1,2012-01-23T19:41:00Z,27.6250,-90.4410,15.2,296.0,4.8,-9999.0,'11133222,11111222,99999999' 
ADCP,ioos:station:wmo:42890:1,2012-01-23T19:47:00Z,27.6250,-90.4410,15.2,314.0,6.2,-9999.0,'11133222,11111222,99999999' 